Погода в Выксе

Погода в Выксе : погода сейчас, прогноз погоды и архив. Всё, что Вы хотите узнать о погоде в Выксе!

Хотите узнать прогноз погоды в Выксе? Тогда Вам сюда: Погода в Выксе

Поиск расширенной информации на нашем сайте:

Другие новости

Новости СМИ2

Главная страница сайта

Новости сайта

02.10.2013

Напоминаем, что на нашем новом сайте вы можете получить высокодетализированные прогнозы погоды по пунктам России, СНГ и мира (включающие важные для авиации метеовеличины, такие как направление и скорость ветра, видимость, явления погоды, количество и форма облачности, нижняя и верхняя граница облачности), а также ознакомиться с разнообразными материалами по авиационной метеорологии и подборкой полезных ссылок на эту тему.

Сайт Метеоцентр.Азия посвящён разработке технологий оптимизации авиаметеорологического обслуживания, включая проектирование и перспективное создание нескольких автоматизированных авиаметеорологических систем:
- система выпуска высокодетальных прогностических карт явлений погоды для нижнего воздушного пространства по России и ближнему зарубежью;
- система верификации прогнозов TAF (выпускаемых синоптиками официальных АМСГ РФ и ближнего зарубежья) и AUTOTAF (выпускаемых сайтом Метеоцентр.Азия) - выявление ошибок, онлайн-сопоставление с фактической погодой METAR, автоматическое внесение коррективов в прогнозы при резком отклонении фактической погоды от прогноза, подсчёт оправдываемости прогнозов по элементам и в целом;
- система обработки, анализа и отображения авиаметеорологической информации для применения провайдерами метеорологической информации.

Рекомендуем: Читайте тампоны clean point инструкция здесь все понятно!

Погода в Выксе - сегодня

Время (UTC), дата Ветер
(°,м/с) 
Видим.   Явления Облачность Т
(°С)
Тd
(°С)
f(%) Тe
(°С)
Pmin
(гПа)
dP
(гПа)
Po
(мм)
O2
(г/м3)
Тmin Tmax R s Состояние
почвы
09 18.01.17 320 (СЗ) 3-4{06}  10 км    8/0 средняя 
[Ac trans]
-6 -8.7 81 -9  1032.3  0.7  763  315           
12 18.01.17 300 (СЗ) 2-4{05}  10 км  слаб. снег  6/6 300 м 
[Sc]
-5.7 -8.3 82 -7  1032  -0.3  763  315           
15 18.01.17 300 (СЗ) 4-5{06}  10 км  {снег}  6/6 480 м 
[Sc]
-5.8 -8.8 79 -9  1031.7  -0.3  763  315    -5.6  0.0     
18 18.01.17 230 (ЮЗ) 2-4{09}  10 км  {снег}  6/6 400 м 
[Sc]
-8.6 -11 83 -10  1031.5  -0.3  762  318           
21 18.01.17 230 (ЮЗ) 2-5{06}  10 км    ясно 
-9 -10.6 88 -11  1029.9  -1.7  761  318           
00 19.01.17 230 (ЮЗ) 2-4{05}  10 км    ясно 
-7.7 -9.5 87 -9  1028.5  -1.7  760  316           
03 19.01.17 250 (З) 2-4{06}  10 км    6/6 480 м 
[Sc]
-7.2 -8.5 90 -9  1027  -1.4  759  315  -8.7      31  равномерный
сухой снег
100% 
06 19.01.17 230 (ЮЗ) 3-5{07}  10 км  {снег}  10/0 средняя 
[As op]
-7.1 -8.4 90 -10  1026.9  759  315           
09 19.01.17 230 (ЮЗ) 3-6{06}  10 км    10/0 средняя 
[As op]
-5.3 -6.7 90 -8  1025.2  -1.6  758  312           
12 19.01.17 230 (ЮЗ) 3-7{08}  10 км    10/0 средняя 
[Ac As]
-4.3 -7.4 79 -7  1022.6  -2.7  756  310           
15 19.01.17 230 (ЮЗ) 3-6{08}  10 км  {снег}  8/0 средняя 
[Ac trans]
-4.6 -6.5 87 -7  1020.3  -2.1  754  310    -4.3  0.4     
18 19.01.17 240 (ЮЗ) 4-9{10}  10 км  слаб. снег  10/0 средняя 
[As op]
-4.1 -6.4 84 -7  1018.5  -1.8  753  309           
21 19.01.17 240 (ЮЗ) 4-6{09}  10 км  {снег}  8/0 средняя 
[Ac trans]
-4.1 -6.4 84 -7  1015.5  -2.9  751  308           
00 20.01.17 250 (З) 4-6{08}  10 км  {снег}  8/0 средняя 
[Ac trans]
-3.7 -6.2 83 -7  1012.4  -3.1  748  306           
03 20.01.17 270 (З) 5-9{10}  10 км    9/0 средняя 
[Ac trans]
-3.7 -6.2 83 -7  1010.8  -1.6  747  306  -4.6    0.2  31  равномерный
сухой снег
100% 
06 20.01.17 270 (З) 7-10{11}  10 км    10/10 420 м 
[Sc]
-2.8 -4.8 86 -7  1007.8  -2.8  745  304           
09 20.01.17 280 (З) 7-11{11}  10 км    9/9 300 м 
[Sc]
-0.8 -4 79 -5  1007.8  745  302           
12 20.01.17 310 (СЗ) 6-10{12}  10 км  позёмок  10/8 600 м кучево-дожд. 
[Cb cap]
-0.5 -7 61 -4  1007.8  0.1  745  302           
15 20.01.17 310 (СЗ) 6-9{13}  10 км    ясно 
-2.4 -8.8 61 -6  1009.5  1.6  746  304    -0.5  0.0     
18 20.01.17 310 (СЗ) 5-7{12}  10 км    ясно 
-5 -11.3 61 -9  1010.6  0.9  747  308           
21 20.01.17 280 (З) 3-5{09}  10 км    ясно 
-7.3 -12.2 68 -10  1011.8  748  311           
00 21.01.17 270 (З) 2-4{06}  10 км    10/0 средняя 
[Ac As]
-7.4 -11.3 74 -9  1011.1  -0.7  747  311           
03 21.01.17 240 (ЮЗ) 2-4{05}  10 км    ясно 
-9.8 -11.9 85 -12  1010.1  -1.2  746  313  -9.9    0.0  31  равномерный
сухой снег
100% 
06 21.01.17 150 (ЮВ) 1-1{05}  10 км    4/0 верхняя 
[Cs]
-11.3 -12.6 90 -11  1008.2  -1.9  745  314  -11.4         
09 21.01.17 300 (СЗ) 3-5{07}  10 км  в посл. час снег  10/0 средняя 
[As op]
-5.9 -8.1 84 -8  1006.7  -1.1  744  307           
Время (UTC), дата Ветер
(°,м/с) 
Видим.   Явления Облачность Т
(°С)
Тd
(°С)
f(%) Тe
(°С)
Pmin
(гПа)
dP
(гПа)
Po
(мм)
O2
(г/м3)
Тmin Tmax R s Состояние
почвы

Для получения пояснительной информации подведите курсор к названию столбца.

ПОГОДА в Выксе - архив

Всё, что Вы хотите узнать о погоде в Выксе - удобно и подробно!

Выберите нужную дату (начиная с 1 января 2015* года) и нажмите кнопку "Найти".
Будут отображены архивные сводки погоды по пункту Выкса, начиная с указанной даты.


Отображать данные в формате CSV (для использования в таблицах Excel)


Внимание! Наш архив погоды предназначен исключительно для личного некоммерческого использования в познавательных целях. Если Вам необходимы официальные справки о состоянии погоды (для производственных, юридических, коммерческих и т.п. целей), обращайтесь в органы Росгидромета.

*Примечание: данная дата относится к архиву по метеостанциям СССР (Россия, СНГ, Балтия).
Архив по метеостанциям Зарубежной Европы и Азии (кроме Китая) хранится 10 дней, по другим регионам земного шара (Китай, Африка, Америка, Австралия, Океания) - 1 день.

Выкса - район местоположения метеостанции


Название, широта, долгота, высота метеостанции:
Выкса 55.3°ш. 42.1°д. 114 м над ур. моря [Российская Федерация]

Дополнительная информация

В oтличие oт бoльшинства пoгoдных сайтoв мы публикуем пoдрoбную метеoинфoрмацию в детальнoм прoфессиoнальнoм фoрмате.

Характеристики температуры и влажнoсти вoздуха измеряются на высoте 2 м в тени вдали oт зданий и деревьев.
Скoрoсть ветра измеряется на высoте 10 м (на урoвне рoста челoвека скoрoсть ветра ниже в 1.5-2 раза). Если метеoстанция нахoдится в гoрoде или в лесу, тo скoрoсть ветра занижена на 2-4 м/с пo сравнению с oткрытым местoм. Скoрoсть ветра над акватoриями крупных рек и oзёр, а также на вершинах хoлмoв на 2-5 м/с выше, чем в oбычных услoвиях.
Атмoсфернoе давление в разных тoчках местнoсти мoжет значительнo oтличаться oт давления на метеoстанции, в зависимoсти oт услoвий рельефа (при пoдъёме на 10 м давление пoнижается примернo на 1 мм рт.ст.).